Location: Deurze
(52.9838°N, 6.6090°E)
Time: 19:29:09
(UTC+00:00)

SeaSat 1 - Pass Details

Date: 11 March 2026
Orbit: 736 x 740 km, 108.0° (Epoch: 20 April)

Event Time Altitude Azimuth Distance (km) Brightness Sun altitude
Exits shadow 20:33:04 17° 214° (SSW) 1,833 4.4 -27.0°
Maximum altitude 20:35:29 24° 253° (WSW) 1,518 4.4 -27.3°
Drops below altitude 10° 20:39:25 10° 306° (NW) 2,256 5.9 -27.7°
Sets 20:42:07 0° 321° (NW) 3,185 6.9 -28.1°
